Regional Weather Roundup
Issued by NWS

Home | Current Version | Previous Version | Graphics & Text | Print | Product List | Glossary Off
Versions: 1 2 3 4 5 6 7 8 9 10 11 12 13 14 15 16 17 18 19 20 21 22 23 24 25 26 27 28 29 30 31 32 33 34 35 36 37 38 39 40 41 42 43 44 45 46 47 48 49 50

000
ASUS43 KMKX 010900
RWRWI

WISCONSIN REGIONAL WEATHER ROUNDUP
NATIONAL WEATHER SERVICE MILWAUKEE/SULLIVAN WI
400 AM CDT MON SEP 01 2014

NOTE: "FAIR" INDICATES FEW OR NO CLOUDS BELOW 12,000 FEET WITH NO
SIGNIFICANT WEATHER AND/OR OBSTRUCTIONS TO VISIBILITY.

WIZ001-002-006>008-014>016-023>028-011000-
NORTHWEST WISCONSIN

CITY           SKY/WX    TMP DP  RH WIND       PRES   REMARKS
SUPERIOR ARPT  RAIN      64  64 100 W6        29.57S
ASHLAND        LGT RAIN  65  64  97 S7        29.58F
HAYWARD        HVY RAIN  65  65 100 SW8       29.62R FOG
SIREN          CLOUDY    65  64  96 SW5       29.62R
RICE LAKE      CLOUDY    65  64  94 S8        29.66R
LADYSMITH      CLOUDY    66  65  96 SW5       29.66R
EAU CLAIRE     NOT AVBL
MENOMONIE      CLOUDY    66  65  95 S6        29.66R
NEW RICHMOND   RAIN      65  64  99 SW9       29.66R
OSCEOLA        LGT RAIN  66  66 100 S10       29.67R
$$

WIZ003>005-009-010-017-018-011000-
NORTH CENTRAL WISCONSIN

CITY           SKY/WX    TMP DP  RH WIND       PRES   REMARKS
WOODRUFF       CLOUDY    67  65  92 S8        29.63F
RHINELANDER    CLOUDY    67  65  93 S12G21    29.67F
EAGLE RIVER    CLOUDY    64  64 100 S6        29.65F
LAND O LAKES   CLOUDY    65  64  97 SE6       29.65F
PHILLIPS       CLOUDY    66  63  91 S22G31    29.63R
TOMAHAWK       CLOUDY    66  63  92 S6        29.66F
MEDFORD        CLOUDY    65  60  81 SW13G25   29.69R
MERRILL        CLOUDY    68  65  91 SW5       29.68S
$$

WIZ029-030-035-036-043>047-011000-
CENTRAL WISCONSIN

CITY           SKY/WX    TMP DP  RH WIND       PRES   REMARKS
WAUSAU         CLOUDY    70  59  68 SW9       29.68S
MOSINEE        CLOUDY    68  61  77 S10       29.71S
MARSHFIELD     LGT RAIN  67  59  75 SW9       29.69F
STEVENS POINT  CLOUDY    70  57  65 S9        29.71F
WAUPACA        CLOUDY    73  70  89 S7        29.72F
WAUTOMA        NOT AVBL
WISC RAPIDS    CLOUDY    72  57  59 SW12      29.70F
CAMP DOUGLAS   NOT AVBL
$$

WIZ011>013-019>022-031-037>040-048>050-011000-
NORTHEAST WISCONSIN

CITY           SKY/WX    TMP DP  RH WIND       PRES   REMARKS
ANTIGO         MOCLDY    66  66  98 S13       29.71F
STURGEON BAY   MOCLDY    68  64  88 S15G21    29.75F
GREEN BAY      MOCLDY    70  68  93 S7        29.73F
MANITOWOC      NOT AVBL
APPLETON       MOCLDY    72  70  94 S15       29.74F
CLINTONVILLE   CLOUDY    72  68  88 S9        29.71F
OSHKOSH        MOCLDY    72  69  90 S12       29.74F
$$

WIZ032>034-041-042-053>061-011000-
SOUTHWEST WISCONSIN

CITY           SKY/WX    TMP DP  RH WIND       PRES   REMARKS
LA CROSSE      CLOUDY    66  62  87 CALM      29.65R
SPARTA         CLOUDY    72  54  53 S8        29.65F
VIROQUA        PTSUNNY   65  59  82 S14       29.66F
BOSCOBEL       CLOUDY    67  62  84 SW6       29.70F
PRAIRIE DU CHI CLOUDY    65  62  89 CALM      29.69R
PLATTEVILLE    CLOUDY    65  64  96 SE9       29.78F
$$

WIZ056-057-062-063-064-067-068-011000-
SOUTH CENTRAL WISCONSIN

CITY           SKY/WX    TMP DP  RH WIND       PRES   REMARKS
BARABOO/DELLS  MOCLDY    68  57  68 SW7       29.75F
LONE ROCK      NOT AVBL
WATERTOWN      MOCLDY    70  69  99 S3        29.78F
MADISON        PTCLDY    73  61  65 W6        29.78S
MIDDLETON      FAIR      70  59  67 SW6       29.79S
MONROE         MOCLDY    70  61  73 W13       29.80S
JANESVILLE     MOCLDY    72  70  94 W6        29.80R
$$

WIZ051-052-058>065-066-070>072-011000-
SOUTHEAST WISCONSIN

CITY           SKY/WX    TMP DP  RH WIND       PRES   REMARKS
MILWAUKEE      MOCLDY    73  69  87 SW10      29.79F
WAUKESHA       PTCLDY    68  66  94 S5        29.81F FOG
MILWAUKEE/TIMM PTCLDY    72  66  83 S7        29.80F
RACINE         PTCLDY    72  69  90 S7        29.81F
BURLINGTON     PTCLDY    69  68  97 S6        29.80F
KENOSHA        PTCLDY    71  69  93 S7        29.81F
FOND DU LAC    MOCLDY    72  68  87 S12       29.76F
SHEBOYGAN      MOCLDY    67  65  93 SW7       29.77F FOG
WEST BEND      MOCLDY    70  64  83 S7        29.78F
JUNEAU         MOCLDY    69  68  95 S9        29.78F
$$

LSZ147-162-011000-
LAKE SUPERIOR

STATION/POSITION TIME  TEMP    WIND        PRES    WAVE
                       AIR SEA DIR/SP/G            HT/PER
                 (UTC) (F)     (DEG/KT/KT) (MB)    (FT/S)
W MID LAKE BUOY  0750   63 58  180/ 10/ 12 1002.0R   3/ 5
DEVILS ISLAND    0800   67     190/  6/  8 1000.6F
PORT WING        0800   65     210/  2/  6 1001.4
SAXON HARBOR     0820   68      CALM  / 21 1001.0F
$$

LMZ867-665-643>646-011000-
LAKE MICHIGAN

STATION/POSITION TIME  TEMP    WIND        PRES    WAVE
                       AIR SEA DIR/SP/G            HT/PER
                 (UTC) (F)     (DEG/KT/KT) (MB)    (FT/S)
N MID LAKE BUOY  0750   67 65  180/ 12/ 14 1008.5F   1/ 3
NORTHPORT PIER   0800   66     150/  8/ 11 1007.8F
KEWAUNEE LAKESHO 0800   61     180/ 11/ 12 1007.3F
SHEBOYGAN LAKESH 0800   70 52  180/ 15/ 16 1008.6F
ATWATER BUOY     0800   71     170/ 10/ 14 1010.2F
MILWAUKEE LAKESH 0800   73     190/  6/  8   N/A
S MID LAKE BUOY  0750   72 70  180/ 14/ 17 1009.8F   2/ 3
KENOSHA   LAKESH 0800   74     210/  9/ 12 1009.5S
$$

TC  - TEMPERATURE IN CELSIUS
VSB - VISIBILITY IN STATUTE MILES
WCI - WIND CHILL INDEX
HX  - HEAT INDEX




USA.gov is the U.S. government's official web portal to all federal, state and local government web resources and services.